Weather in Sofia

Bulgaria     42°41′51″N   23°19′18″E
temp.,
°C
wind,
m/s
gust,
m/s
humid.,
%
clouds,
%
prec.,
mm/h
press.,
hPa
HPBL,
m
12 april, mon
mon1200:00+7e24725 0.0 1025101
03:00+5e12766 0.0 102546
06:00+6ne017294 0.0 102464
09:00+8wnw016851 0.0 1023181
12:00+14w125047 0.0 1021694
15:00+18w2242100 0.0 10181369
18:00+18ssw014357 0.0 10171345
21:00+13ese236560 0.0 101857
13 april, tue
tue1300:00+10e227797 0.0 101957
03:00+9e1181100 0.0 101931
06:00+8ene1184100 0.0 101835
09:00+10nnw117797 0.0 1018222
12:00+10ne1291100 3.4 1017183
15:00+12wsw1182100 4.4 1015359
18:00+10sse1491100 10.7 1014268
21:00+10sse0195100 13.0 101464
14 april, wed
wed1400:00+8wnw119581 1.4 101429
03:00+8sw3788100 3.2 1013316
06:00+7nw3792100 0.9 1013392
09:00+3wnw4890100 1.0 1017506
12:00+6wnw6868100 0.1 1017945
15:00+6wnw796297 0.1 10171068
18:00+5wnw696393 0.0 1017978
21:00+3wnw4107213 0.0 1020763
15 april, thu
thu1500:00+2w410755 0.0 1020640
03:00+1w387717 0.0 1020490
06:00+1wnw477459 0.0 1020628
09:00+3w466381 0.0 1020960
12:00+7nw565297 0.0 10191315
15:00+8nw664936 0.0 10181362
18:00+7nw67535 0.0 1018903
21:00+3wnw27653 0.0 1020379
16 april, fri
fri1600:00+2wnw247324 0.0 1021239
03:00+1w247730 0.0 1021196
06:000wnw247763 0.0 1021124
09:00+3wnw25645 0.0 1022542
12:00+8nw344335 0.0 10201184
15:00+11nw34375 0.0 10181557
18:00+11nw333834 0.0 10171179
21:00+6ne225998 0.0 101833